Time,TemperatureF,DewpointF,PressureIn,WindDirection,WindDirectionDegrees,WindSpeedMPH,WindSpeedGustMPH,Humidity,HourlyPrecipIn,Conditions,Clouds,dailyrainin,SoftwareType,DateUTC
2013-06-29 00:01:00,72.1,56.1,27.22,North,0,0.0,0.0,57,0.00,CLR,OVC,0.00,WeatherDisplay:10.37,2013-06-29 05:01:00,
2013-06-29 00:06:00,72.1,56.1,27.22,North,0,0.0,0.0,57,0.00,CLR,OVC,0.00,WeatherDisplay:10.37,2013-06-29 05:06:00,
2013-06-29 00:11:00,72.1,56.1,27.22,North,0,1.1,0.0,57,0.00,CLR,OVC,0.00,WeatherDisplay:10.37,2013-06-29 05:11:00,
2013-06-29 00:16:00,71.8,56.2,27.22,North,0,0.0,0.0,58,0.00,CLR,OVC,0.00,WeatherDisplay:10.37,2013-06-29 05:16:00,
2013-06-29 00:21:00,71.4,56.8,27.22,SW,225,1.1,0.0,60,0.00,CLR,OVC,0.00,WeatherDisplay:10.37,2013-06-29 05:21:00,
2013-06-29 00:26:00,71.2,57.5,27.22,SW,225,0.0,0.0,62,0.00,CLR,OVC,0.00,WeatherDisplay:10.37,2013-06-29 05:26:00,
2013-06-29 00:31:00,71.1,57.4,27.22,SW,225,0.0,0.0,62,0.00,CLR,OVC,0.00,WeatherDisplay:10.37,2013-06-29 05:31:00,
2013-06-29 00:36:00,70.7,57.0,27.22,SW,225,0.0,0.0,62,0.00,CLR,OVC,0.00,WeatherDisplay:10.37,2013-06-29 05:36:00,
2013-06-29 00:41:00,70.5,57.3,27.22,SE,135,1.1,0.0,63,0.00,CLR,OVC,0.00,WeatherDisplay:10.37,2013-06-29 05:41:00,
2013-06-29 00:46:00,70.2,57.0,27.23,SW,225,0.0,0.0,63,0.00,CLR,OVC,0.00,WeatherDisplay:10.37,2013-06-29 05:46:00,
2013-06-29 00:51:00,69.8,56.6,27.23,South,180,1.1,0.0,63,0.00,CLR,OVC,0.00,WeatherDisplay:10.37,2013-06-29 05:51:00,
2013-06-29 00:56:00,69.4,57.2,27.23,South,180,0.0,0.0,65,0.00,CLR,OVC,0.00,WeatherDisplay:10.37,2013-06-29 05:56:00,
2013-06-29 01:01:00,69.3,56.6,27.23,South,180,0.0,0.0,64,0.00,CLR,OVC,0.00,WeatherDisplay:10.37,2013-06-29 06:01:00,
2013-06-29 01:06:00,69.3,56.6,27.23,South,180,0.0,0.0,64,0.00,CLR,OVC,0.00,WeatherDisplay:10.37,2013-06-29 06:06:00,
2013-06-29 01:11:00,68.9,56.6,27.23,North,0,0.0,0.0,65,0.00,CLR,OVC,0.00,WeatherDisplay:10.37,2013-06-29 06:11:00,
2013-06-29 01:16:00,68.9,56.6,27.23,North,0,0.0,0.0,65,0.00,CLR,OVC,0.00,WeatherDisplay:10.37,2013-06-29 06:16:00,
2013-06-29 01:21:00,68.9,56.6,27.23,North,0,0.0,0.0,65,0.00,CLR,OVC,0.00,WeatherDisplay:10.37,2013-06-29 06:21:00,
2013-06-29 01:26:00,68.7,56.5,27.23,North,0,0.0,0.0,65,0.00,CLR,OVC,0.00,WeatherDisplay:10.37,2013-06-29 06:26:00,
2013-06-29 01:31:00,68.5,56.3,27.23,North,0,1.1,0.0,65,0.00,CLR,OVC,0.00,WeatherDisplay:10.37,2013-06-29 06:31:00,
2013-06-29 01:36:00,68.2,56.4,27.23,North,0,2.3,2.3,66,0.00,CLR,OVC,0.00,WeatherDisplay:10.37,2013-06-29 06:36:00,
2013-06-29 01:41:00,68.0,56.6,27.23,NW,315,3.5,3.5,67,0.00,CLR,OVC,0.00,WeatherDisplay:10.37,2013-06-29 06:41:00,
2013-06-29 01:46:00,67.3,56.8,27.23,NW,315,2.3,2.3,69,0.00,CLR,OVC,0.00,WeatherDisplay:10.37,2013-06-29 06:46:00,
2013-06-29 01:51:00,66.9,56.8,27.23,NW,315,0.0,0.0,70,0.00,CLR,OVC,0.00,WeatherDisplay:10.37,2013-06-29 06:51:00,
2013-06-29 01:56:00,66.7,57.0,27.23,NW,315,1.1,1.1,71,0.00,CLR,OVC,0.00,WeatherDisplay:10.37,2013-06-29 06:56:00,
2013-06-29 02:01:00,66.6,56.9,27.23,North,0,1.1,0.0,71,0.00,CLR,OVC,0.00,WeatherDisplay:10.37,2013-06-29 07:01:00,
2013-06-29 02:06:00,66.6,56.9,27.23,North,0,1.1,0.0,71,0.00,CLR,OVC,0.00,WeatherDisplay:10.37,2013-06-29 07:06:00,
2013-06-29 02:11:00,66.6,56.9,27.23,North,0,0.0,0.0,71,0.00,CLR,OVC,0.00,WeatherDisplay:10.37,2013-06-29 07:11:00,
2013-06-29 02:16:00,66.7,57.4,27.23,SW,225,0.0,0.0,72,0.00,CLR,OVC,0.00,WeatherDisplay:10.37,2013-06-29 07:16:00,
2013-06-29 02:21:00,66.6,57.3,27.23,North,0,0.0,0.0,72,0.00,CLR,OVC,0.00,WeatherDisplay:10.37,2013-06-29 07:21:00,
2013-06-29 02:26:00,66.4,56.7,27.23,NW,315,0.0,0.0,71,0.00,CLR,OVC,0.00,WeatherDisplay:10.37,2013-06-29 07:26:00,
2013-06-29 02:31:00,66.4,56.7,27.23,West,270,0.0,0.0,71,0.00,CLR,OVC,0.00,WeatherDisplay:10.37,2013-06-29 07:31:00,
2013-06-29 02:36:00,66.4,56.7,27.23,West,270,0.0,0.0,71,0.00,CLR,OVC,0.00,WeatherDisplay:10.37,2013-06-29 07:36:00,
2013-06-29 02:41:00,66.2,56.5,27.23,North,0,0.0,0.0,71,0.00,CLR,OVC,0.00,WeatherDisplay:10.37,2013-06-29 07:41:00,
2013-06-29 02:46:00,66.2,56.5,27.23,North,0,0.0,0.0,71,0.00,CLR,OVC,0.00,WeatherDisplay:10.37,2013-06-29 07:46:00,
2013-06-29 02:52:00,66.2,56.5,27.24,North,0,0.0,0.0,71,0.00,CLR,OVC,0.00,WeatherDisplay:10.37,2013-06-29 07:52:00,
2013-06-29 02:57:00,66.2,56.5,27.23,WSW,248,0.0,0.0,71,0.00,CLR,OVC,0.00,WeatherDisplay:10.37,2013-06-29 07:57:00,
2013-06-29 03:02:00,66.2,56.5,27.24,North,0,1.1,0.0,71,0.00,CLR,OVC,0.00,WeatherDisplay:10.37,2013-06-29 08:02:00,
2013-06-29 03:07:00,66.2,56.5,27.23,North,0,1.1,0.0,71,0.00,CLR,OVC,0.00,WeatherDisplay:10.37,2013-06-29 08:07:00,
2013-06-29 03:12:00,66.0,57.1,27.23,NW,315,2.3,2.3,73,0.00,CLR,OVC,0.00,WeatherDisplay:10.37,2013-06-29 08:12:00,
2013-06-29 03:17:00,66.2,56.5,27.23,North,0,3.5,3.5,71,0.00,CLR,OVC,0.00,WeatherDisplay:10.37,2013-06-29 08:17:00,
2013-06-29 03:22:00,66.2,56.5,27.24,North,0,3.5,3.5,71,0.00,CLR,OVC,0.00,WeatherDisplay:10.37,2013-06-29 08:22:00,
2013-06-29 03:27:00,66.2,56.9,27.24,NW,315,3.5,3.5,72,0.00,CLR,OVC,0.00,WeatherDisplay:10.37,2013-06-29 08:27:00,
2013-06-29 03:32:00,66.0,57.1,27.24,North,0,2.3,0.0,73,0.00,CLR,OVC,0.00,WeatherDisplay:10.37,2013-06-29 08:32:00,
2013-06-29 03:37:00,66.2,56.9,27.24,North,0,3.5,3.5,72,0.00,CLR,OVC,0.00,WeatherDisplay:10.37,2013-06-29 08:37:00,
2013-06-29 03:42:00,66.4,57.1,27.24,NW,315,2.3,0.0,72,0.00,CLR,OVC,0.00,WeatherDisplay:10.37,2013-06-29 08:42:00,
2013-06-29 03:47:00,66.4,56.7,27.24,NW,315,1.1,1.1,71,0.00,CLR,OVC,0.00,WeatherDisplay:10.37,2013-06-29 08:47:00,
2013-06-29 03:52:00,66.4,56.7,27.24,NW,315,0.0,0.0,71,0.00,CLR,OVC,0.00,WeatherDisplay:10.37,2013-06-29 08:52:00,
2013-06-29 03:57:00,66.7,57.0,27.24,South,180,0.0,0.0,71,0.00,CLR,OVC,0.00,WeatherDisplay:10.37,2013-06-29 08:57:00,
2013-06-29 04:02:00,66.7,56.6,27.24,South,180,0.0,0.0,70,0.00,CLR,OVC,0.00,WeatherDisplay:10.37,2013-06-29 09:02:00,
2013-06-29 04:07:00,66.7,56.6,27.25,South,180,0.0,0.0,70,0.00,CLR,OVC,0.00,WeatherDisplay:10.37,2013-06-29 09:07:00,
2013-06-29 04:12:00,66.7,57.0,27.24,SW,225,0.0,0.0,71,0.00,CLR,OVC,0.00,WeatherDisplay:10.37,2013-06-29 09:12:00,
2013-06-29 04:17:00,66.7,57.4,27.25,East,90,1.1,0.0,72,0.00,CLR,OVC,0.00,WeatherDisplay:10.37,2013-06-29 09:17:00,
2013-06-29 04:22:00,66.4,57.1,27.25,South,180,1.1,0.0,72,0.00,CLR,OVC,0.00,WeatherDisplay:10.37,2013-06-29 09:22:00,
2013-06-29 04:27:00,66.2,56.9,27.25,SE,135,1.1,0.0,72,0.00,CLR,OVC,0.00,WeatherDisplay:10.37,2013-06-29 09:27:00,
2013-06-29 04:32:00,65.8,56.9,27.24,SE,135,0.0,0.0,73,0.00,CLR,OVC,0.00,WeatherDisplay:10.37,2013-06-29 09:32:00,
2013-06-29 04:37:00,65.5,56.6,27.24,NW,315,0.0,0.0,73,0.00,CLR,OVC,0.00,WeatherDisplay:10.37,2013-06-29 09:37:00,
2013-06-29 04:42:00,65.5,57.0,27.24,NW,315,0.0,0.0,74,0.00,CLR,OVC,0.00,WeatherDisplay:10.37,2013-06-29 09:42:00,
2013-06-29 04:47:00,65.3,56.8,27.24,North,0,0.0,0.0,74,0.00,CLR,OVC,0.00,WeatherDisplay:10.37,2013-06-29 09:47:00,
2013-06-29 04:52:00,65.1,56.6,27.24,North,0,0.0,0.0,74,0.00,CLR,OVC,0.00,WeatherDisplay:10.37,2013-06-29 09:52:00,
2013-06-29 04:57:00,64.8,56.6,27.24,North,0,1.1,1.1,75,0.00,CLR,OVC,0.00,WeatherDisplay:10.37,2013-06-29 09:57:00,
2013-06-29 05:02:00,64.6,56.8,27.24,NW,315,1.1,1.1,76,0.00,CLR,OVC,0.00,WeatherDisplay:10.37,2013-06-29 10:02:00,
2013-06-29 05:07:00,64.6,56.8,27.25,NW,315,1.6,1.6,76,0.00,CLR,OVC,0.00,WeatherDisplay:10.37,2013-06-29 10:07:00,
2013-06-29 05:12:00,63.9,56.9,27.24,NW,315,1.1,0.0,78,0.00,CLR,OVC,0.00,WeatherDisplay:10.37,2013-06-29 10:12:00,
2013-06-29 05:17:00,63.5,56.5,27.25,North,0,1.1,1.1,78,0.00,CLR,OVC,0.00,WeatherDisplay:10.37,2013-06-29 10:17:00,
2013-06-29 05:22:00,63.3,56.3,27.24,NW,315,0.0,0.0,78,0.00,CLR,OVC,0.00,WeatherDisplay:10.37,2013-06-29 10:22:00,
2013-06-29 05:27:00,63.3,56.7,27.24,NW,315,0.0,0.0,79,0.00,CLR,OVC,0.00,WeatherDisplay:10.37,2013-06-29 10:27:00,
2013-06-29 05:32:00,63.3,56.7,27.24,NW,315,0.0,0.0,79,0.00,CLR,OVC,0.00,WeatherDisplay:10.37,2013-06-29 10:32:00,
2013-06-29 05:37:00,63.1,56.2,27.24,NW,315,0.0,0.0,78,0.00,CLR,OVC,0.00,WeatherDisplay:10.37,2013-06-29 10:37:00,
2013-06-29 05:42:00,63.1,56.5,27.25,NW,315,0.0,0.0,79,0.00,CLR,OVC,0.00,WeatherDisplay:10.37,2013-06-29 10:42:00,
2013-06-29 05:47:00,63.1,56.5,27.25,North,0,0.0,0.0,79,0.00,CLR,OVC,0.00,WeatherDisplay:10.37,2013-06-29 10:47:00,
2013-06-29 05:52:00,63.1,56.2,27.25,NW,315,0.0,0.0,78,0.00,CLR,OVC,0.00,WeatherDisplay:10.37,2013-06-29 10:52:00,
2013-06-29 05:57:00,63.1,56.5,27.25,NW,315,0.0,0.0,79,0.00,CLR,OVC,0.00,WeatherDisplay:10.37,2013-06-29 10:57:00,
2013-06-29 06:02:00,63.0,56.3,27.25,NW,315,0.0,0.0,79,0.00,CLR,OVC,0.00,WeatherDisplay:10.37,2013-06-29 11:02:00,
2013-06-29 06:07:00,62.8,56.2,27.25,NW,315,0.0,0.7,79,0.00,CLR,OVC,0.00,WeatherDisplay:10.37,2013-06-29 11:07:00,
2013-06-29 06:12:00,62.6,56.3,27.24,NW,315,1.1,1.1,80,0.00,CLR,OVC,0.00,WeatherDisplay:10.37,2013-06-29 11:12:00,
2013-06-29 06:17:00,62.4,56.5,27.24,NW,315,0.0,0.0,81,0.00,CLR,OVC,0.00,WeatherDisplay:10.37,2013-06-29 11:17:00,
2013-06-29 06:22:00,62.2,56.7,27.24,NW,315,0.0,0.0,82,0.00,CLR,OVC,0.00,WeatherDisplay:10.37,2013-06-29 11:22:00,
2013-06-29 06:27:00,62.2,56.7,27.24,NW,315,1.1,1.1,82,0.00,CLR,OVC,0.00,WeatherDisplay:10.37,2013-06-29 11:27:00,
2013-06-29 06:32:00,62.1,56.5,27.24,NW,315,1.1,0.0,82,0.00,CLR,OVC,0.00,WeatherDisplay:10.37,2013-06-29 11:32:00,
2013-06-29 06:37:00,62.1,56.5,27.24,NW,315,0.0,0.0,82,0.00,CLR,OVC,0.00,WeatherDisplay:10.37,2013-06-29 11:37:00,
2013-06-29 06:42:00,62.1,56.5,27.24,NW,315,1.1,0.0,82,0.00,CLR,OVC,0.00,WeatherDisplay:10.37,2013-06-29 11:42:00,
2013-06-29 06:47:00,62.1,56.5,27.24,North,0,0.0,0.0,82,0.00,CLR,OVC,0.00,WeatherDisplay:10.37,2013-06-29 11:47:00,
2013-06-29 06:52:00,61.9,56.7,27.24,NW,315,1.1,0.0,83,0.00,CLR,OVC,0.00,WeatherDisplay:10.37,2013-06-29 11:52:00,
2013-06-29 06:57:00,61.9,56.7,27.24,NW,315,1.6,1.6,83,0.00,CLR,OVC,0.00,WeatherDisplay:10.37,2013-06-29 11:57:00,
2013-06-29 07:02:00,61.9,56.7,27.24,NW,315,1.1,0.0,83,0.00,CLR,OVC,0.00,WeatherDisplay:10.37,2013-06-29 12:02:00,
2013-06-29 07:07:00,61.9,56.7,27.24,NW,315,1.6,0.0,83,0.00,CLR,OVC,0.00,WeatherDisplay:10.37,2013-06-29 12:07:00,
2013-06-29 07:12:00,61.9,56.7,27.24,NW,315,1.1,1.1,83,0.00,CLR,OVC,0.00,WeatherDisplay:10.37,2013-06-29 12:12:00,
2013-06-29 07:17:00,62.1,56.8,27.24,NW,315,1.1,1.1,83,0.00,CLR,OVC,0.00,WeatherDisplay:10.37,2013-06-29 12:17:00,
2013-06-29 07:22:00,62.2,57.0,27.24,NNW,338,3.5,3.5,83,0.00,CLR,OVC,0.00,WeatherDisplay:10.37,2013-06-29 12:22:00,
2013-06-29 07:27:00,62.4,57.2,27.24,NW,315,1.1,1.1,83,0.00,CLR,OVC,0.00,WeatherDisplay:10.37,2013-06-29 12:27:00,
2013-06-29 07:32:00,62.6,57.4,27.24,NW,315,2.3,2.3,83,0.00,CLR,OVC,0.00,WeatherDisplay:10.37,2013-06-29 12:32:00,
2013-06-29 07:37:00,62.8,57.9,27.24,NW,315,2.3,0.0,84,0.00,CLR,OVC,0.00,WeatherDisplay:10.37,2013-06-29 12:37:00,
2013-06-29 07:42:00,63.0,58.0,27.24,NW,315,1.1,0.0,84,0.00,CLR,OVC,0.00,WeatherDisplay:10.37,2013-06-29 12:42:00,
2013-06-29 07:47:00,63.3,58.4,27.24,NW,315,1.1,0.0,84,0.00,CLR,OVC,0.00,WeatherDisplay:10.37,2013-06-29 12:47:00,
2013-06-29 07:52:00,63.7,58.4,27.24,NW,315,2.3,0.0,83,0.00,CLR,OVC,0.00,WeatherDisplay:10.37,2013-06-29 12:52:00,
2013-06-29 07:57:00,64.2,58.9,27.24,West,270,3.5,3.5,83,0.00,CLR,OVC,0.00,WeatherDisplay:10.37,2013-06-29 12:57:00,
2013-06-29 08:02:00,64.4,59.1,27.24,North,0,2.3,2.3,83,0.00,CLR,OVC,0.00,WeatherDisplay:10.37,2013-06-29 13:02:00,
2013-06-29 08:07:00,64.8,59.1,27.24,NNW,338,3.5,3.5,82,0.00,CLR,OVC,0.00,WeatherDisplay:10.37,2013-06-29 13:07:00,
2013-06-29 08:12:00,65.3,59.7,27.24,North,0,3.8,3.8,82,0.00,CLR,OVC,0.00,WeatherDisplay:10.37,2013-06-29 13:12:00,
2013-06-29 08:17:00,65.7,59.7,27.24,NNW,338,3.5,3.5,81,0.00,CLR,OVC,0.00,WeatherDisplay:10.37,2013-06-29 13:17:00,
2013-06-29 08:22:00,66.2,59.1,27.24,North,0,3.5,3.5,78,0.00,CLR,OVC,0.00,WeatherDisplay:10.37,2013-06-29 13:22:00,
2013-06-29 08:28:00,66.6,59.1,27.24,NW,315,3.5,3.5,77,0.00,CLR,OVC,0.00,WeatherDisplay:10.37,2013-06-29 13:28:00,
2013-06-29 08:32:00,67.8,60.3,27.24,NW,315,3.5,3.5,77,0.00,CLR,OVC,0.00,WeatherDisplay:10.37,2013-06-29 13:32:00,
2013-06-29 08:38:00,69.6,61.3,27.24,NW,315,3.5,3.5,75,0.00,CLR,OVC,0.00,WeatherDisplay:10.37,2013-06-29 13:38:00,
2013-06-29 08:43:00,71.6,61.7,27.24,North,0,3.5,3.5,71,0.00,CLR,OVC,0.00,WeatherDisplay:10.37,2013-06-29 13:43:00,
2013-06-29 08:48:00,73.2,61.6,27.23,North,0,2.3,0.0,67,0.00,CLR,OVC,0.00,WeatherDisplay:10.37,2013-06-29 13:48:00,
2013-06-29 08:53:00,75.2,62.6,27.23,NW,315,1.1,1.1,65,0.00,CLR,OVC,0.00,WeatherDisplay:10.37,2013-06-29 13:53:00,
2013-06-29 08:58:00,76.6,63.1,27.24,NW,315,3.5,3.5,63,0.00,CLR,OVC,0.00,WeatherDisplay:10.37,2013-06-29 13:58:00,
2013-06-29 09:16:00,76.7,63.1,27.24,North,0,0.0,0.0,63,0.00,CLR,OVC,0.00,WeatherDisplay:10.37,2013-06-29 14:16:00,
2013-06-29 09:21:00,82.6,61.5,27.23,NW,315,2.3,0.0,49,0.00,CLR,OVC,0.00,WeatherDisplay:10.37,2013-06-29 14:21:00,
2013-06-29 09:26:00,82.2,60.6,27.23,NW,315,2.3,0.0,48,0.00,CLR,OVC,0.00,WeatherDisplay:10.37,2013-06-29 14:26:00,
2013-06-29 09:31:00,82.2,61.7,27.24,NW,315,2.3,2.3,50,0.00,CLR,OVC,0.00,WeatherDisplay:10.37,2013-06-29 14:31:00,
2013-06-29 09:36:00,82.9,61.2,27.24,North,0,3.5,3.5,48,0.00,CLR,OVC,0.00,WeatherDisplay:10.37,2013-06-29 14:36:00,
2013-06-29 09:42:00,83.1,62.0,27.23,NW,315,2.3,2.3,49,0.00,CLR,OVC,0.00,WeatherDisplay:10.37,2013-06-29 14:42:00,
2013-06-29 09:47:00,83.3,62.1,27.24,NW,315,2.3,2.3,49,0.00,CLR,OVC,0.00,WeatherDisplay:10.37,2013-06-29 14:47:00,
2013-06-29 09:52:00,83.7,61.3,27.24,NW,315,2.3,2.3,47,0.00,CLR,OVC,0.00,WeatherDisplay:10.37,2013-06-29 14:52:00,
2013-06-29 09:57:00,83.7,61.9,27.23,NW,315,1.1,0.0,48,0.00,CLR,OVC,0.00,WeatherDisplay:10.37,2013-06-29 14:57:00,
2013-06-29 10:02:00,83.7,61.9,27.23,NNE,14,1.1,0.0,48,0.00,CLR,OVC,0.00,WeatherDisplay:10.37,2013-06-29 15:02:00,
2013-06-29 10:07:00,83.5,59.9,27.23,NW,315,3.5,3.5,45,0.00,CLR,OVC,0.00,WeatherDisplay:10.37,2013-06-29 15:07:00,
2013-06-29 10:12:00,83.3,57.1,27.23,NW,315,3.5,3.5,41,0.00,CLR,OVC,0.00,WeatherDisplay:10.37,2013-06-29 15:12:00,
2013-06-29 10:17:00,83.3,57.8,27.23,NNW,338,5.8,5.8,42,0.00,CLR,OVC,0.00,WeatherDisplay:10.37,2013-06-29 15:17:00,
2013-06-29 10:22:00,83.7,58.8,27.23,NW,315,2.3,2.3,43,0.00,CLR,OVC,0.00,WeatherDisplay:10.37,2013-06-29 15:22:00,
2013-06-29 10:27:00,83.8,58.3,27.23,SW,225,2.3,0.0,42,0.00,CLR,OVC,0.00,WeatherDisplay:10.37,2013-06-29 15:27:00,
2013-06-29 10:32:00,84.9,60.6,27.23,NW,315,2.3,0.0,44,0.00,CLR,OVC,0.00,WeatherDisplay:10.37,2013-06-29 15:32:00,
2013-06-29 10:37:00,85.3,58.2,27.23,NNW,338,2.3,2.3,40,0.00,CLR,OVC,0.00,WeatherDisplay:10.37,2013-06-29 15:37:00,
2013-06-29 10:42:00,84.9,56.5,27.22,NW,315,2.3,3.1,38,0.00,CLR,OVC,0.00,WeatherDisplay:10.37,2013-06-29 15:42:00,
2013-06-29 10:47:00,84.0,56.4,27.22,NNW,338,9.2,9.2,39,0.00,CLR,OVC,0.00,WeatherDisplay:10.37,2013-06-29 15:47:00,
2013-06-29 10:52:00,84.0,57.1,27.22,West,270,5.8,5.8,40,0.00,CLR,OVC,0.00,WeatherDisplay:10.37,2013-06-29 15:52:00,
2013-06-29 10:57:00,84.2,55.8,27.22,NNW,338,5.8,5.8,38,0.00,CLR,OVC,0.00,WeatherDisplay:10.37,2013-06-29 15:57:00,
2013-06-29 11:02:00,84.6,57.6,27.22,NW,315,8.1,8.1,40,0.00,CLR,OVC,0.00,WeatherDisplay:10.37,2013-06-29 16:02:00,
2013-06-29 11:07:00,84.6,57.6,27.22,NW,315,8.3,8.3,40,0.00,CLR,OVC,0.00,WeatherDisplay:10.37,2013-06-29 16:07:00,
2013-06-29 11:12:00,84.4,56.7,27.22,SW,225,3.5,3.5,39,0.00,CLR,OVC,0.00,WeatherDisplay:10.37,2013-06-29 16:12:00,
2013-06-29 11:17:00,85.3,57.5,27.22,NW,315,5.8,5.8,39,0.00,CLR,OVC,0.00,WeatherDisplay:10.37,2013-06-29 16:17:00,
2013-06-29 11:22:00,85.8,57.3,27.22,NW,315,6.9,6.9,38,0.00,CLR,OVC,0.00,WeatherDisplay:10.37,2013-06-29 16:22:00,
2013-06-29 11:27:00,85.8,57.3,27.21,North,0,8.1,8.1,38,0.00,CLR,OVC,0.00,WeatherDisplay:10.37,2013-06-29 16:27:00,
2013-06-29 11:32:00,86.2,56.1,27.22,North,0,8.1,8.1,36,0.00,CLR,OVC,0.00,WeatherDisplay:10.37,2013-06-29 16:32:00,
2013-06-29 11:37:00,85.8,56.5,27.21,North,0,4.6,4.6,37,0.00,CLR,OVC,0.00,WeatherDisplay:10.37,2013-06-29 16:37:00,
2013-06-29 11:42:00,86.2,56.1,27.21,North,0,9.2,9.2,36,0.00,CLR,OVC,0.00,WeatherDisplay:10.37,2013-06-29 16:42:00,
2013-06-29 11:47:00,86.4,56.3,27.21,North,0,8.1,8.1,36,0.00,CLR,OVC,0.00,WeatherDisplay:10.37,2013-06-29 16:47:00,
2013-06-29 11:52:00,86.5,56.4,27.21,NW,315,12.7,12.7,36,0.00,CLR,OVC,0.00,WeatherDisplay:10.37,2013-06-29 16:52:00,
2013-06-29 11:57:00,86.0,55.9,27.21,NE,45,12.7,12.7,36,0.00,CLR,OVC,0.00,WeatherDisplay:10.37,2013-06-29 16:57:00,
2013-06-29 12:02:00,86.5,56.4,27.21,NW,315,5.8,5.8,36,0.00,CLR,OVC,0.00,WeatherDisplay:10.37,2013-06-29 17:02:00,
2013-06-29 12:07:00,86.5,56.4,27.21,North,0,5.8,5.8,36,0.00,CLR,OVC,0.00,WeatherDisplay:10.37,2013-06-29 17:07:00,
2013-06-29 12:12:00,86.9,56.7,27.21,NNW,338,10.4,10.7,36,0.00,CLR,OVC,0.00,WeatherDisplay:10.37,2013-06-29 17:12:00,
2013-06-29 12:17:00,86.4,56.3,27.21,NW,315,9.2,9.2,36,0.00,CLR,OVC,0.00,WeatherDisplay:10.37,2013-06-29 17:17:00,
2013-06-29 12:22:00,86.5,57.2,27.21,North,0,5.8,6.9,37,0.00,CLR,OVC,0.00,WeatherDisplay:10.37,2013-06-29 17:22:00,
2013-06-29 12:27:00,86.9,56.7,27.21,NW,315,12.7,12.7,36,0.00,CLR,OVC,0.00,WeatherDisplay:10.37,2013-06-29 17:27:00,
2013-06-29 12:32:00,86.7,56.6,27.21,NW,315,9.2,9.2,36,0.00,CLR,OVC,0.00,WeatherDisplay:10.37,2013-06-29 17:32:00,
2013-06-29 12:37:00,86.7,56.6,27.21,NW,315,15.0,15.0,36,0.00,CLR,OVC,0.00,WeatherDisplay:10.37,2013-06-29 17:37:00,
2013-06-29 12:42:00,86.7,56.6,27.21,NNW,338,8.1,8.1,36,0.00,CLR,OVC,0.00,WeatherDisplay:10.37,2013-06-29 17:42:00,
2013-06-29 12:47:00,86.5,55.6,27.21,North,0,10.4,10.4,35,0.00,CLR,OVC,0.00,WeatherDisplay:10.37,2013-06-29 17:47:00,
2013-06-29 12:52:00,86.4,56.3,27.20,NW,315,12.7,12.7,36,0.00,CLR,OVC,0.00,WeatherDisplay:10.37,2013-06-29 17:52:00,
2013-06-29 12:57:00,86.4,56.3,27.20,NW,315,6.9,6.9,36,0.00,CLR,OVC,0.00,WeatherDisplay:10.37,2013-06-29 17:57:00,
2013-06-29 13:02:00,86.7,56.6,27.20,North,0,10.4,10.4,36,0.00,CLR,OVC,0.00,WeatherDisplay:10.37,2013-06-29 18:02:00,
2013-06-29 13:07:00,86.7,56.6,27.20,North,0,10.4,10.4,36,0.00,CLR,OVC,0.00,WeatherDisplay:10.37,2013-06-29 18:07:00,
2013-06-29 13:12:00,88.2,57.1,27.20,NW,315,4.6,4.6,35,0.00,CLR,OVC,0.00,WeatherDisplay:10.37,2013-06-29 18:12:00,
2013-06-29 13:17:00,87.8,55.9,27.20,NW,315,12.7,12.7,34,0.00,CLR,OVC,0.00,WeatherDisplay:10.37,2013-06-29 18:17:00,
2013-06-29 13:22:00,87.4,57.2,27.20,North,0,10.4,10.4,36,0.00,CLR,OVC,0.00,WeatherDisplay:10.37,2013-06-29 18:22:00,
2013-06-29 13:27:00,87.3,57.8,27.20,North,0,5.8,5.8,37,0.00,CLR,OVC,0.00,WeatherDisplay:10.37,2013-06-29 18:27:00,
2013-06-29 13:32:00,87.4,57.2,27.19,North,0,8.1,8.1,36,0.00,CLR,OVC,0.00,WeatherDisplay:10.37,2013-06-29 18:32:00,
2013-06-29 13:37:00,87.8,56.7,27.20,North,0,5.8,5.8,35,0.00,CLR,OVC,0.00,WeatherDisplay:10.37,2013-06-29 18:37:00,
2013-06-29 13:42:00,87.6,57.4,27.20,NW,315,10.4,10.4,36,0.00,CLR,OVC,0.00,WeatherDisplay:10.37,2013-06-29 18:42:00,
2013-06-29 13:47:00,87.3,57.0,27.19,NW,315,10.4,10.4,36,0.00,CLR,OVC,0.00,WeatherDisplay:10.37,2013-06-29 18:47:00,
2013-06-29 13:52:00,87.3,57.8,27.19,North,0,5.8,5.8,37,0.00,CLR,OVC,0.00,WeatherDisplay:10.37,2013-06-29 18:52:00,
2013-06-29 13:57:00,86.7,57.3,27.19,NW,315,6.9,6.9,37,0.00,CLR,OVC,0.00,WeatherDisplay:10.37,2013-06-29 18:57:00,
2013-06-29 14:02:00,87.1,57.7,27.19,NNW,338,15.0,15.0,37,0.00,CLR,OVC,0.00,WeatherDisplay:10.37,2013-06-29 19:02:00,
2013-06-29 14:07:00,87.1,57.7,27.19,NNW,338,10.7,10.7,37,0.00,CLR,OVC,0.00,WeatherDisplay:10.37,2013-06-29 19:07:00,
2013-06-29 14:12:00,87.3,57.8,27.19,NW,315,8.1,8.1,37,0.00,CLR,OVC,0.00,WeatherDisplay:10.37,2013-06-29 19:12:00,
2013-06-29 14:17:00,86.5,56.4,27.19,WNW,292,16.1,16.1,36,0.00,CLR,OVC,0.00,WeatherDisplay:10.37,2013-06-29 19:17:00,
2013-06-29 14:22:00,86.2,56.9,27.18,NW,315,5.8,5.8,37,0.00,CLR,OVC,0.00,WeatherDisplay:10.37,2013-06-29 19:22:00,
2013-06-29 14:27:00,86.2,57.6,27.18,WNW,292,5.8,5.8,38,0.00,CLR,OVC,0.00,WeatherDisplay:10.37,2013-06-29 19:27:00,
2013-06-29 14:32:00,85.6,57.1,27.19,NW,315,8.1,8.1,38,0.00,CLR,OVC,0.00,WeatherDisplay:10.37,2013-06-29 19:32:00,
2013-06-29 14:37:00,85.6,57.1,27.19,North,0,9.2,9.2,38,0.00,CLR,OVC,0.00,WeatherDisplay:10.37,2013-06-29 19:37:00,
2013-06-29 14:42:00,86.0,56.7,27.18,North,0,11.5,11.5,37,0.00,CLR,OVC,0.00,WeatherDisplay:10.37,2013-06-29 19:42:00,
2013-06-29 14:47:00,85.6,57.1,27.18,NE,45,8.1,8.1,38,0.00,CLR,OVC,0.00,WeatherDisplay:10.37,2013-06-29 19:47:00,
2013-06-29 14:52:00,85.5,57.7,27.18,NW,315,8.1,8.1,39,0.00,CLR,OVC,0.00,WeatherDisplay:10.37,2013-06-29 19:52:00,
2013-06-29 14:57:00,85.1,58.8,27.18,NW,315,5.8,7.6,41,0.00,CLR,OVC,0.00,WeatherDisplay:10.37,2013-06-29 19:57:00,
2013-06-29 15:02:00,85.1,58.8,27.18,NW,315,5.8,5.8,41,0.00,CLR,OVC,0.00,WeatherDisplay:10.37,2013-06-29 20:02:00,
2013-06-29 15:07:00,85.1,58.8,27.18,NW,315,5.8,5.8,41,0.00,CLR,OVC,0.00,WeatherDisplay:10.37,2013-06-29 20:07:00,
2013-06-29 15:12:00,86.5,59.3,27.18,North,0,4.6,5.4,40,0.00,CLR,OVC,0.00,WeatherDisplay:10.37,2013-06-29 20:12:00,
2013-06-29 15:18:00,86.4,58.5,27.18,NW,315,5.8,5.8,39,0.00,CLR,OVC,0.00,WeatherDisplay:10.37,2013-06-29 20:18:00,
2013-06-29 15:22:00,86.0,58.9,27.17,North,0,5.8,6.0,40,0.00,CLR,OVC,0.00,WeatherDisplay:10.37,2013-06-29 20:22:00,
2013-06-29 15:28:00,86.4,57.8,27.17,NNW,338,10.4,10.4,38,0.00,CLR,OVC,0.00,WeatherDisplay:10.37,2013-06-29 20:28:00,
2013-06-29 15:33:00,86.5,58.6,27.18,WNW,292,10.4,10.4,39,0.00,CLR,OVC,0.00,WeatherDisplay:10.37,2013-06-29 20:33:00,
2013-06-29 15:38:00,86.7,58.1,27.17,NW,315,10.4,10.4,38,0.00,CLR,OVC,0.00,WeatherDisplay:10.37,2013-06-29 20:38:00,
2013-06-29 15:43:00,86.4,58.5,27.17,North,0,5.8,5.8,39,0.00,CLR,OVC,0.00,WeatherDisplay:10.37,2013-06-29 20:43:00,
2013-06-29 15:48:00,86.2,58.3,27.17,NNW,338,8.1,8.1,39,0.00,CLR,OVC,0.00,WeatherDisplay:10.37,2013-06-29 20:48:00,
2013-06-29 15:53:00,85.8,58.7,27.17,NNW,338,10.4,10.4,40,0.00,CLR,OVC,0.00,WeatherDisplay:10.37,2013-06-29 20:53:00,
2013-06-29 15:58:00,84.9,57.9,27.17,North,0,5.8,5.8,40,0.00,CLR,OVC,0.00,WeatherDisplay:10.37,2013-06-29 20:58:00,
2013-06-29 16:03:00,85.5,58.4,27.17,NW,315,8.1,8.1,40,0.00,CLR,OVC,0.00,WeatherDisplay:10.37,2013-06-29 21:03:00,
2013-06-29 16:08:00,85.8,59.4,27.17,North,0,5.8,5.8,41,0.00,CLR,OVC,0.00,WeatherDisplay:10.37,2013-06-29 21:08:00,
2013-06-29 16:13:00,86.5,57.9,27.16,NE,45,6.9,6.9,38,0.00,CLR,OVC,0.00,WeatherDisplay:10.37,2013-06-29 21:13:00,
2013-06-29 16:18:00,86.7,58.1,27.16,NNW,338,8.1,8.1,38,0.00,CLR,OVC,0.00,WeatherDisplay:10.37,2013-06-29 21:18:00,
2013-06-29 16:23:00,86.2,57.6,27.16,NW,315,9.2,9.2,38,0.00,CLR,OVC,0.00,WeatherDisplay:10.37,2013-06-29 21:23:00,
2013-06-29 16:28:00,86.0,57.4,27.16,NW,315,9.2,9.2,38,0.00,CLR,OVC,0.00,WeatherDisplay:10.37,2013-06-29 21:28:00,
2013-06-29 16:33:00,85.1,57.4,27.16,North,0,15.0,15.0,39,0.00,CLR,OVC,0.00,WeatherDisplay:10.37,2013-06-29 21:33:00,
2013-06-29 16:38:00,85.3,57.5,27.16,North,0,6.9,6.9,39,0.00,CLR,OVC,0.00,WeatherDisplay:10.37,2013-06-29 21:38:00,
2013-06-29 16:43:00,85.5,57.7,27.16,North,0,8.1,8.1,39,0.00,CLR,OVC,0.00,WeatherDisplay:10.37,2013-06-29 21:43:00,
2013-06-29 16:48:00,85.3,57.5,27.16,NNW,338,6.9,6.9,39,0.00,CLR,OVC,0.00,WeatherDisplay:10.37,2013-06-29 21:48:00,
2013-06-29 16:53:00,85.3,58.2,27.16,NW,315,4.6,8.3,40,0.00,CLR,OVC,0.00,WeatherDisplay:10.37,2013-06-29 21:53:00,
2013-06-29 16:58:00,86.2,59.0,27.15,NE,45,5.8,5.8,40,0.00,CLR,OVC,0.00,WeatherDisplay:10.37,2013-06-29 21:58:00,
2013-06-29 17:03:00,90.5,67.5,27.07,East,90,8.1,8.1,47,0.00,CLR,OVC,0.00,WeatherDisplay:10.37,2013-06-29 22:03:00,
2013-06-29 17:08:00,86.5,58.6,27.15,NW,315,8.1,8.1,39,0.00,CLR,OVC,0.00,WeatherDisplay:10.37,2013-06-29 22:08:00,
2013-06-29 17:13:00,86.5,57.9,27.15,North,0,10.4,10.4,38,0.00,CLR,OVC,0.00,WeatherDisplay:10.37,2013-06-29 22:13:00,
2013-06-29 17:18:00,86.4,57.8,27.15,NW,315,8.1,8.1,38,0.00,CLR,OVC,0.00,WeatherDisplay:10.37,2013-06-29 22:18:00,
2013-06-29 17:23:00,86.2,56.9,27.15,North,0,9.2,9.2,37,0.00,CLR,OVC,0.00,WeatherDisplay:10.37,2013-06-29 22:23:00,
2013-06-29 17:28:00,86.2,56.9,27.14,NW,315,6.9,6.9,37,0.00,CLR,OVC,0.00,WeatherDisplay:10.37,2013-06-29 22:28:00,
2013-06-29 17:33:00,86.0,55.9,27.15,NW,315,8.1,8.1,36,0.00,CLR,OVC,0.00,WeatherDisplay:10.37,2013-06-29 22:33:00,
2013-06-29 17:38:00,86.2,56.9,27.15,North,0,12.7,12.7,37,0.00,CLR,OVC,0.00,WeatherDisplay:10.37,2013-06-29 22:38:00,
2013-06-29 17:43:00,86.4,57.0,27.14,North,0,10.4,10.4,37,0.00,CLR,OVC,0.00,WeatherDisplay:10.37,2013-06-29 22:43:00,
2013-06-29 17:48:00,86.0,56.7,27.15,North,0,10.4,10.4,37,0.00,CLR,OVC,0.00,WeatherDisplay:10.37,2013-06-29 22:48:00,
2013-06-29 17:53:00,85.1,57.4,27.14,North,0,3.5,3.5,39,0.00,CLR,OVC,0.00,WeatherDisplay:10.37,2013-06-29 22:53:00,
2013-06-29 17:58:00,84.7,57.7,27.14,NW,315,2.3,2.3,40,0.00,CLR,OVC,0.00,WeatherDisplay:10.37,2013-06-29 22:58:00,
2013-06-29 18:03:00,84.9,57.9,27.14,North,0,5.8,8.3,40,0.00,CLR,OVC,0.00,WeatherDisplay:10.37,2013-06-29 23:03:00,
2013-06-29 18:08:00,85.1,56.6,27.14,NW,315,11.5,11.5,38,0.00,CLR,OVC,0.00,WeatherDisplay:10.37,2013-06-29 23:08:00,
2013-06-29 18:13:00,85.3,57.5,27.14,NW,315,8.1,8.1,39,0.00,CLR,OVC,0.00,WeatherDisplay:10.37,2013-06-29 23:13:00,
2013-06-29 18:18:00,85.1,56.6,27.14,North,0,10.4,10.4,38,0.00,CLR,OVC,0.00,WeatherDisplay:10.37,2013-06-29 23:18:00,
2013-06-29 18:23:00,85.1,56.6,27.14,North,0,8.1,8.1,38,0.00,CLR,OVC,0.00,WeatherDisplay:10.37,2013-06-29 23:23:00,
2013-06-29 18:28:00,85.1,57.4,27.14,NW,315,8.1,8.1,39,0.00,CLR,OVC,0.00,WeatherDisplay:10.37,2013-06-29 23:28:00,
2013-06-29 18:33:00,85.3,56.1,27.14,North,1,10.4,10.4,37,0.00,CLR,OVC,0.00,WeatherDisplay:10.37,2013-06-29 23:33:00,
2013-06-29 18:38:00,85.1,56.6,27.14,North,0,12.7,12.7,38,0.00,CLR,OVC,0.00,WeatherDisplay:10.37,2013-06-29 23:38:00,
2013-06-29 18:43:00,84.9,55.7,27.14,North,0,5.8,5.8,37,0.00,CLR,OVC,0.00,WeatherDisplay:10.37,2013-06-29 23:43:00,
2013-06-29 18:48:00,84.6,56.9,27.14,North,0,9.2,9.2,39,0.00,CLR,OVC,0.00,WeatherDisplay:10.37,2013-06-29 23:48:00,
2013-06-29 18:53:00,84.2,55.8,27.14,NW,315,6.9,6.9,38,0.00,CLR,OVC,0.00,WeatherDisplay:10.37,2013-06-29 23:53:00,
2013-06-29 18:58:00,83.7,57.5,27.14,NW,315,4.6,5.4,41,0.00,CLR,OVC,0.00,WeatherDisplay:10.37,2013-06-29 23:58:00,
2013-06-29 19:03:00,83.7,57.5,27.14,North,0,6.9,6.9,41,0.00,CLR,OVC,0.00,WeatherDisplay:10.37,2013-06-30 00:03:00,
2013-06-29 19:08:00,83.7,56.1,27.14,NNW,338,6.9,6.9,39,0.00,CLR,OVC,0.00,WeatherDisplay:10.37,2013-06-30 00:08:00,
2013-06-29 19:13:00,83.7,56.8,27.14,NNW,338,8.1,8.1,40,0.00,CLR,OVC,0.00,WeatherDisplay:10.37,2013-06-30 00:13:00,
2013-06-29 19:18:00,83.8,56.9,27.14,NW,315,8.1,8.1,40,0.00,CLR,OVC,0.00,WeatherDisplay:10.37,2013-06-30 00:18:00,
2013-06-29 19:23:00,83.5,56.6,27.14,NW,315,5.8,5.8,40,0.00,CLR,OVC,0.00,WeatherDisplay:10.37,2013-06-30 00:23:00,
2013-06-29 19:28:00,83.3,57.1,27.15,North,0,6.9,6.9,41,0.00,CLR,OVC,0.00,WeatherDisplay:10.37,2013-06-30 00:28:00,
2013-06-29 19:33:00,83.1,57.0,27.15,NNE,22,8.1,8.1,41,0.00,CLR,OVC,0.00,WeatherDisplay:10.37,2013-06-30 00:33:00,
2013-06-29 19:38:00,82.9,56.1,27.15,WNW,292,10.4,10.4,40,0.00,CLR,OVC,0.00,WeatherDisplay:10.37,2013-06-30 00:38:00,
2013-06-29 19:43:00,82.6,55.8,27.15,North,0,8.1,8.1,40,0.00,CLR,OVC,0.00,WeatherDisplay:10.37,2013-06-30 00:43:00,
2013-06-29 19:48:00,82.4,55.7,27.15,NW,315,3.5,3.5,40,0.00,CLR,OVC,0.00,WeatherDisplay:10.37,2013-06-30 00:48:00,
2013-06-29 19:53:00,82.2,56.2,27.15,NW,315,3.5,3.5,41,0.00,CLR,OVC,0.00,WeatherDisplay:10.37,2013-06-30 00:53:00,
2013-06-29 19:58:00,82.2,56.2,27.15,NW,315,3.5,3.5,41,0.00,CLR,OVC,0.00,WeatherDisplay:10.37,2013-06-30 00:58:00,
2013-06-29 20:03:00,82.2,56.2,27.15,NNE,16,3.5,3.5,41,0.00,CLR,OVC,0.00,WeatherDisplay:10.37,2013-06-30 01:03:00,
2013-06-29 20:08:00,81.5,55.5,27.15,NW,315,1.1,1.6,41,0.00,CLR,OVC,0.00,WeatherDisplay:10.37,2013-06-30 01:08:00,
2013-06-29 20:13:00,81.5,55.5,27.15,North,0,3.5,3.5,41,0.00,CLR,OVC,0.00,WeatherDisplay:10.37,2013-06-30 01:13:00,
2013-06-29 20:18:00,81.1,54.5,27.15,NW,315,5.8,5.8,40,0.00,CLR,OVC,0.00,WeatherDisplay:10.37,2013-06-30 01:18:00,
2013-06-29 20:23:00,81.0,55.0,27.15,North,0,5.8,5.8,41,0.00,CLR,OVC,0.00,WeatherDisplay:10.37,2013-06-30 01:23:00,
2013-06-29 20:28:00,80.8,54.9,27.15,NW,315,3.5,3.5,41,0.00,CLR,OVC,0.00,WeatherDisplay:10.37,2013-06-30 01:28:00,
2013-06-29 20:33:00,80.6,54.7,27.15,North,0,2.3,2.3,41,0.00,CLR,OVC,0.00,WeatherDisplay:10.37,2013-06-30 01:33:00,
2013-06-29 20:38:00,80.2,55.1,27.16,North,0,4.6,4.6,42,0.00,CLR,OVC,0.00,WeatherDisplay:10.37,2013-06-30 01:38:00,
2013-06-29 20:43:00,80.1,54.9,27.15,NW,315,3.5,3.5,42,0.00,CLR,OVC,0.00,WeatherDisplay:10.37,2013-06-30 01:43:00,
2013-06-29 20:48:00,79.7,54.6,27.16,NNW,338,3.5,3.5,42,0.00,CLR,OVC,0.00,WeatherDisplay:10.37,2013-06-30 01:48:00,
2013-06-29 20:53:00,79.3,54.3,27.16,North,0,1.1,1.1,42,0.00,CLR,OVC,0.00,WeatherDisplay:10.37,2013-06-30 01:53:00,
2013-06-29 20:59:00,79.0,53.9,27.16,NW,315,3.5,0.0,42,0.00,CLR,OVC,0.00,WeatherDisplay:10.37,2013-06-30 01:59:00,
2013-06-29 21:04:00,78.8,53.8,27.16,North,0,3.5,3.5,42,0.00,CLR,OVC,0.00,WeatherDisplay:10.37,2013-06-30 02:04:00,
2013-06-29 21:09:00,78.3,53.9,27.16,NW,315,5.8,5.8,43,0.00,CLR,OVC,0.00,WeatherDisplay:10.37,2013-06-30 02:09:00,
2013-06-29 21:14:00,78.3,53.9,27.16,North,0,2.3,2.3,43,0.00,CLR,OVC,0.00,WeatherDisplay:10.37,2013-06-30 02:14:00,
2013-06-29 21:19:00,77.5,53.3,27.17,West,270,0.0,0.0,43,0.00,CLR,OVC,0.00,WeatherDisplay:10.37,2013-06-30 02:19:00,
2013-06-29 21:24:00,77.2,53.6,27.16,North,0,1.1,0.0,44,0.00,CLR,OVC,0.00,WeatherDisplay:10.37,2013-06-30 02:24:00,
2013-06-29 21:29:00,76.6,53.7,27.17,East,90,0.0,0.0,45,0.00,CLR,OVC,0.00,WeatherDisplay:10.37,2013-06-30 02:29:00,
2013-06-29 21:34:00,76.3,54.0,27.17,NE,45,1.1,0.0,46,0.00,CLR,OVC,0.00,WeatherDisplay:10.37,2013-06-30 02:34:00,
2013-06-29 21:39:00,75.7,53.5,27.17,East,90,1.1,0.0,46,0.00,CLR,OVC,0.00,WeatherDisplay:10.37,2013-06-30 02:39:00,
2013-06-29 21:44:00,75.4,53.2,27.17,SW,225,1.1,0.0,46,0.00,CLR,OVC,0.00,WeatherDisplay:10.37,2013-06-30 02:44:00,
2013-06-29 21:49:00,75.4,53.2,27.17,SW,225,1.1,0.0,46,0.00,CLR,OVC,0.00,WeatherDisplay:10.37,2013-06-30 02:49:00,
2013-06-29 21:54:00,74.3,53.9,27.17,SE,135,1.1,0.0,49,0.00,CLR,OVC,0.00,WeatherDisplay:10.37,2013-06-30 02:54:00,
2013-06-29 21:59:00,73.8,54.0,27.18,SW,225,0.0,0.0,50,0.00,CLR,OVC,0.00,WeatherDisplay:10.37,2013-06-30 02:59:00,
2013-06-29 22:04:00,73.2,54.5,27.18,South,180,1.1,0.0,52,0.00,CLR,OVC,0.00,WeatherDisplay:10.37,2013-06-30 03:04:00,
2013-06-29 22:09:00,72.9,54.2,27.18,South,180,0.0,0.0,52,0.00,CLR,OVC,0.00,WeatherDisplay:10.37,2013-06-30 03:09:00,
2013-06-29 22:14:00,72.5,53.9,27.19,South,180,0.0,0.0,52,0.00,CLR,OVC,0.00,WeatherDisplay:10.37,2013-06-30 03:14:00,
2013-06-29 22:19:00,72.0,53.4,27.19,South,180,0.0,0.0,52,0.00,CLR,OVC,0.00,WeatherDisplay:10.37,2013-06-30 03:19:00,
2013-06-29 22:24:00,71.6,53.6,27.19,South,180,0.0,0.0,53,0.00,CLR,OVC,0.00,WeatherDisplay:10.37,2013-06-30 03:24:00,
2013-06-29 22:29:00,71.2,53.7,27.19,South,180,0.0,0.0,54,0.00,CLR,OVC,0.00,WeatherDisplay:10.37,2013-06-30 03:29:00,
2013-06-29 22:34:00,70.9,53.4,27.20,SW,225,0.0,0.0,54,0.00,CLR,OVC,0.00,WeatherDisplay:10.37,2013-06-30 03:34:00,
2013-06-29 22:39:00,70.5,53.6,27.20,SW,225,0.0,0.0,55,0.00,CLR,OVC,0.00,WeatherDisplay:10.37,2013-06-30 03:39:00,
2013-06-29 22:44:00,70.3,53.4,27.19,SW,225,0.0,0.0,55,0.00,CLR,OVC,0.00,WeatherDisplay:10.37,2013-06-30 03:44:00,
2013-06-29 22:49:00,70.0,53.1,27.20,SW,225,0.0,0.0,55,0.00,CLR,OVC,0.00,WeatherDisplay:10.37,2013-06-30 03:49:00,
2013-06-29 22:54:00,69.8,52.9,27.20,SW,225,0.0,0.0,55,0.00,CLR,OVC,0.00,WeatherDisplay:10.37,2013-06-30 03:54:00,
2013-06-29 22:59:00,69.6,53.2,27.20,SW,225,0.0,0.0,56,0.00,CLR,OVC,0.00,WeatherDisplay:10.37,2013-06-30 03:59:00,
2013-06-29 23:01:00,69.4,53.5,27.20,South,180,1.1,1.1,57,0.00,CLR,OVC,0.00,WeatherDisplay:10.37,2013-06-30 04:01:00,
2013-06-29 23:06:00,69.1,52.7,27.20,East,90,0.0,0.0,56,0.00,CLR,OVC,0.00,WeatherDisplay:10.37,2013-06-30 04:06:00,
2013-06-29 23:11:00,68.7,52.4,27.20,SW,225,1.1,0.0,56,0.00,CLR,OVC,0.00,WeatherDisplay:10.37,2013-06-30 04:11:00,
2013-06-29 23:16:00,68.5,52.2,27.20,SW,225,1.1,0.0,56,0.00,CLR,OVC,0.00,WeatherDisplay:10.37,2013-06-30 04:16:00,
2013-06-29 23:21:00,68.5,52.2,27.20,SW,225,1.1,0.0,56,0.00,CLR,OVC,0.00,WeatherDisplay:10.37,2013-06-30 04:21:00,
2013-06-29 23:26:00,68.2,51.4,27.20,South,180,0.0,0.0,55,0.00,CLR,OVC,0.00,WeatherDisplay:10.37,2013-06-30 04:26:00,
2013-06-29 23:31:00,68.0,51.2,27.21,North,0,0.0,0.0,55,0.00,CLR,OVC,0.00,WeatherDisplay:10.37,2013-06-30 04:31:00,
2013-06-29 23:36:00,67.8,51.5,27.20,NW,315,0.0,0.0,56,0.00,CLR,OVC,0.00,WeatherDisplay:10.37,2013-06-30 04:36:00,
2013-06-29 23:41:00,67.8,51.5,27.21,NW,315,0.0,0.0,56,0.00,CLR,OVC,0.00,WeatherDisplay:10.37,2013-06-30 04:41:00,
2013-06-29 23:46:00,67.8,51.5,27.21,NW,315,0.0,0.0,56,0.00,CLR,OVC,0.00,WeatherDisplay:10.37,2013-06-30 04:46:00,
2013-06-29 23:51:00,67.6,51.4,27.22,NW,315,0.0,0.0,56,0.00,CLR,OVC,0.00,WeatherDisplay:10.37,2013-06-30 04:51:00,
2013-06-29 23:56:00,67.6,51.4,27.22,NW,315,0.0,0.0,56,0.00,CLR,OVC,0.00,WeatherDisplay:10.37,2013-06-30 04:56:00,